Location: Haieshausen
(51.8387°N, 9.9720°E)
Time: 04:10:25
(UTC+00:00)

IDEFIX/ARIANE 42P - Pass Details

Date: 14 July 2020
Orbit: 784 x 804 km, 98.4° (Epoch: 10 August)

Event Time Altitude Azimuth Distance (km) Brightness Sun altitude
Rises 01:51:36 0° 21° (NNE) 3,296 7.6 -9.9°
Reaches altitude 10° 01:54:11 10° 31° (NNE) 2,360 6.7 -9.7°
Maximum altitude 01:58:50 32° 94° (E) 1,325 4.1 -9.3°
Drops below altitude 10° 02:03:26 10° 158° (SSE) 2,339 4.7 -8.9°
Sets 02:05:58 0° 168° (SSE) 3,263 5.4 -8.6°
